| time (UTC) | temp F | wind direction | speed MPH | gust MPH | rain 1hr in | rain 24hr in | rain mn in | humidity % | barometer mb |
| 20260902103715 | 58 | 0.0 | 0.0 | 0.00 | 0.05 | 0.00 | 95 | 1007.9 | |
| 20260902102715 | 57 | 0.0 | 1.0 | 0.00 | 0.05 | 0.00 | 94 | 1007.9 | |
| 20260902101716 | 57 | 0.0 | 0.0 | 0.00 | 0.05 | 0.00 | 95 | 1008.0 | |
| 20260902100715 | 57 | 0.0 | 0.0 | 0.00 | 0.05 | 0.00 | 94 | 1007.9 | |
| 20260902095716 | 57 | 0.0 | 0.0 | 0.00 | 0.05 | 0.00 | 95 | 1008.1 | |
| 20260902094716 | 57 | 0.0 | 0.0 | 0.00 | 0.05 | 0.00 | 95 | 1008.2 | |
| 20260902093716 | 57 | 0.0 | 0.0 | 0.00 | 0.05 | 0.00 | 94 | 1008.3 | |
| 20260902092715 | 57 | 0.0 | 0.0 | 0.00 | 0.05 | 0.00 | 94 | 1008.3 | |
| 20260902091716 | 57 | 0.0 | 0.0 | 0.00 | 0.05 | 0.00 | 94 | 1008.5 | |
| 20260902090716 | 57 | 0.0 | 0.0 | 0.00 | 0.05 | 0.00 | 94 | 1008.6 | |
| 20260902085715 | 58 | 0.0 | 0.0 | 0.00 | 0.05 | 0.00 | 94 | 1008.6 | |
| 20260902084716 | 57 | 0.0 | 0.0 | 0.00 | 0.05 | 0.00 | 94 | 1008.7 | |
| 20260902083716 | 57 | 0.0 | 0.0 | 0.00 | 0.05 | 0.00 | 94 | 1008.8 | |
| 20260902082715 | 57 | 0.0 | 0.0 | 0.00 | 0.05 | 0.00 | 94 | 1008.8 | |
| 20260902081716 | 57 | 0.0 | 0.0 | 0.00 | 0.05 | 0.00 | 94 | 1008.9 | |
| 20260902080715 | 57 | 0.0 | 0.0 | 0.00 | 0.05 | 0.00 | 94 | 1009.0 | |
| 20260902075715 | 57 | 0.0 | 0.0 | 0.00 | 0.05 | 0.00 | 94 | 1009.1 | |
| 20260902074716 | 58 | 248 | 2.0 | 4.0 | 0.00 | 0.05 | 0.00 | 94 | 1009.2 |
| 20260902073736 | 58 | 225 | 2.0 | 3.0 | 0.00 | 0.05 | 0.00 | 94 | 1009.2 |
| 20260902072756 | 58 | 225 | 1.0 | 2.0 | 0.00 | 0.05 | 0.00 | 93 | 1009.3 |
| 20260902071716 | 58 | 0.0 | 1.0 | 0.00 | 0.05 | 0.00 | 93 | 1009.2 | |
| 20260902070736 | 58 | 248 | 3.0 | 4.0 | 0.00 | 0.05 | 0.00 | 93 | 1009.2 |
| 20260902065716 | 58 | 270 | 1.0 | 2.0 | 0.00 | 0.05 | 0.05 | 93 | 1009.2 |
| 20260902064717 | 59 | 0.0 | 2.0 | 0.00 | 0.05 | 0.05 | 93 | 1009.3 | |
| 20260902063717 | 59 | 0.0 | 0.0 | 0.00 | 0.05 | 0.05 | 93 | 1009.2 | |
| 20260902062716 | 59 | 0.0 | 0.0 | 0.00 | 0.05 | 0.05 | 93 | 1009.2 | |
| 20260902061717 | 59 | 0.0 | 0.0 | 0.00 | 0.05 | 0.05 | 93 | 1009.1 | |
| 20260902060717 | 59 | 0.0 | 0.0 | 0.00 | 0.05 | 0.05 | 93 | 1009.1 | |
| 20260902055716 | 59 | 248 | 1.0 | 2.0 | 0.00 | 0.05 | 0.05 | 93 | 1009.3 |
| 20260902054716 | 59 | 225 | 2.0 | 3.0 | 0.00 | 0.05 | 0.05 | 93 | 1009.4 |
| 20260902053717 | 59 | 0.0 | 0.0 | 0.00 | 0.05 | 0.05 | 93 | 1009.5 | |
| 20260902052716 | 59 | 293 | 1.0 | 2.0 | 0.01 | 0.05 | 0.05 | 93 | 1009.7 |
| 20260902051716 | 60 | 248 | 2.0 | 4.0 | 0.01 | 0.05 | 0.05 | 93 | 1009.8 |
| 20260902050717 | 60 | 0.0 | 2.0 | 0.01 | 0.05 | 0.05 | 93 | 1009.9 | |
| 20260902045716 | 60 | 248 | 2.0 | 3.0 | 0.01 | 0.05 | 0.05 | 93 | 1010.0 |
| 20260902044717 | 60 | 0.0 | 1.0 | 0.01 | 0.05 | 0.05 | 93 | 1009.9 | |
| 20260902043736 | 60 | 248 | 2.0 | 3.0 | 0.01 | 0.05 | 0.05 | 92 | 1009.9 |
| 20260902042716 | 60 | 203 | 1.0 | 3.0 | 0.01 | 0.04 | 0.04 | 92 | 1010.0 |
| 20260902041716 | 60 | 248 | 1.0 | 3.0 | 0.01 | 0.04 | 0.04 | 92 | 1009.9 |
| 20260902040737 | 61 | 270 | 1.0 | 2.0 | 0.01 | 0.04 | 0.04 | 92 | 1009.9 |
| 20260902035716 | 61 | 0.0 | 0.0 | 0.01 | 0.04 | 0.04 | 92 | 1009.8 | |
| 20260902034716 | 61 | 0.0 | 0.0 | 0.03 | 0.04 | 0.04 | 92 | 1009.7 | |
| 20260902033736 | 61 | 0.0 | 0.0 | 0.03 | 0.04 | 0.04 | 91 | 1009.6 | |
| 20260902032716 | 62 | 0.0 | 0.0 | 0.02 | 0.03 | 0.03 | 91 | 1009.6 | |
| 20260902031716 | 62 | 0.0 | 0.0 | 0.02 | 0.03 | 0.03 | 91 | 1009.6 | |
| 20260902030717 | 62 | 0.0 | 0.0 | 0.02 | 0.03 | 0.03 | 90 | 1009.6 | |
| 20260902025716 | 62 | 0.0 | 0.0 | 0.02 | 0.03 | 0.03 | 90 | 1009.5 | |
| 20260902024816 | 62 | 0.0 | 0.0 | 0.00 | 0.01 | 0.01 | 90 | 1009.5 | |
| 20260902023716 | 62 | 0.0 | 0.0 | 0.00 | 0.01 | 0.01 | 90 | 1009.5 | |
| 20260902022716 | 62 | 0.0 | 0.0 | 0.00 | 0.01 | 0.01 | 89 | 1009.5 | |
| 20260902021716 | 62 | 293 | 1.0 | 2.0 | 0.00 | 0.01 | 0.01 | 89 | 1009.5 |
| 20260902020737 | 62 | 225 | 1.0 | 2.0 | 0.00 | 0.01 | 0.01 | 89 | 1009.6 |
| 20260902015716 | 62 | 248 | 1.0 | 2.0 | 0.00 | 0.01 | 0.01 | 88 | 1009.6 |
| 20260902014716 | 63 | 0.0 | 1.0 | 0.00 | 0.01 | 0.01 | 88 | 1009.5 | |
| 20260902013716 | 63 | 0.0 | 1.0 | 0.00 | 0.01 | 0.01 | 88 | 1009.5 | |
| 20260902012717 | 63 | 0.0 | 0.0 | 0.01 | 0.01 | 0.01 | 87 | 1009.5 | |
| 20260902011716 | 63 | 0.0 | 0.0 | 0.01 | 0.01 | 0.01 | 87 | 1009.4 | |
| 20260902010717 | 64 | 0.0 | 0.0 | 0.01 | 0.01 | 0.01 | 87 | 1009.4 | |
| 20260902005716 | 64 | 0.0 | 1.0 | 0.01 | 0.01 | 0.01 | 87 | 1009.3 | |
| 20260902004716 | 64 | 0.0 | 1.0 | 0.01 | 0.01 | 0.01 | 87 | 1009.5 | |
| 20260902003717 | 63 | 0.0 | 0.0 | 0.01 | 0.01 | 0.01 | 86 | 1009.4 | |
| 20260902002716 | 63 | 0.0 | 0.0 | 0.00 | 0.00 | 0.00 | 85 | 1009.4 | |
| 20260902001716 | 64 | 248 | 2.0 | 3.0 | 0.00 | 0.00 | 0.00 | 84 | 1009.4 |
| 20260902000716 | 64 | 0.0 | 0.0 | 0.00 | 0.00 | 0.00 | 83 | 1009.4 | |
| 20260901235756 | 64 | 203 | 2.0 | 3.0 | 0.00 | 0.00 | 0.00 | 81 | 1009.3 |
| 20260901234716 | 65 | 0.0 | 0.0 | 0.00 | 0.00 | 0.00 | 81 | 1009.3 | |
| 20260901233716 | 65 | 225 | 2.0 | 4.0 | 0.00 | 0.00 | 0.00 | 81 | 1009.2 |
| 20260901232716 | 65 | 248 | 2.0 | 4.0 | 0.00 | 0.00 | 0.00 | 82 | 1009.3 |
| 20260901231716 | 65 | 225 | 3.0 | 4.0 | 0.00 | 0.00 | 0.00 | 83 | 1009.2 |
| 20260901230716 | 65 | 248 | 1.0 | 3.0 | 0.00 | 0.00 | 0.00 | 85 | 1009.3 |
| 20260901225716 | 64 | 0.0 | 1.0 | 0.00 | 0.00 | 0.00 | 86 | 1009.2 | |
| 20260901224736 | 63 | 0.0 | 0.0 | 0.00 | 0.00 | 0.00 | 86 | 1009.2 | |
| 20260901223716 | 63 | 0.0 | 0.0 | 0.00 | 0.00 | 0.00 | 86 | 1009.2 | |
| 20260901222716 | 63 | 203 | 1.0 | 2.0 | 0.00 | 0.00 | 0.00 | 85 | 1009.3 |
| 20260901221716 | 64 | 248 | 2.0 | 3.0 | 0.00 | 0.00 | 0.00 | 83 | 1009.4 |
| 20260901220716 | 65 | 248 | 5.0 | 8.0 | 0.00 | 0.00 | 0.00 | 80 | 1009.3 |
| 20260901215716 | 65 | 293 | 3.0 | 6.0 | 0.00 | 0.00 | 0.00 | 77 | 1009.2 |
| 20260901214716 | 65 | 248 | 3.0 | 5.0 | 0.00 | 0.00 | 0.00 | 78 | 1009.3 |
| 20260901213716 | 65 | 225 | 3.0 | 5.0 | 0.00 | 0.00 | 0.00 | 78 | 1009.3 |
| 20260901212716 | 64 | 248 | 2.0 | 4.0 | 0.00 | 0.00 | 0.00 | 80 | 1009.3 |
| 20260901211716 | 64 | 293 | 1.0 | 3.0 | 0.00 | 0.00 | 0.00 | 80 | 1009.4 |
| 20260901210736 | 64 | 225 | 5.0 | 7.0 | 0.00 | 0.00 | 0.00 | 78 | 1009.5 |
| 20260901205716 | 65 | 248 | 7.0 | 11.0 | 0.00 | 0.00 | 0.00 | 76 | 1009.6 |
| 20260901204901 | 65 | 248 | 4.0 | 7.0 | 0.00 | 0.00 | 0.00 | 75 | 1009.5 |
| 20260901203736 | 65 | 203 | 3.0 | 7.0 | 0.00 | 0.00 | 0.00 | 75 | 1009.5 |
| 20260901202716 | 65 | 225 | 4.0 | 6.0 | 0.00 | 0.00 | 0.00 | 76 | 1009.6 |
| 20260901201716 | 64 | 270 | 1.0 | 3.0 | 0.00 | 0.00 | 0.00 | 79 | 1009.5 |
| 20260901200717 | 63 | 248 | 3.0 | 5.0 | 0.00 | 0.00 | 0.00 | 81 | 1009.5 |
| 20260901195716 | 63 | 248 | 3.0 | 5.0 | 0.00 | 0.00 | 0.00 | 83 | 1009.5 |
| 20260901194716 | 63 | 248 | 2.0 | 3.0 | 0.00 | 0.00 | 0.00 | 83 | 1009.6 |
| 20260901193716 | 64 | 248 | 4.0 | 6.0 | 0.00 | 0.00 | 0.00 | 81 | 1009.7 |
| 20260901192716 | 64 | 248 | 6.0 | 9.0 | 0.00 | 0.00 | 0.00 | 78 | 1009.7 |
| 20260901191716 | 65 | 225 | 4.0 | 7.0 | 0.00 | 0.00 | 0.00 | 77 | 1009.7 |
| 20260901190716 | 65 | 248 | 6.0 | 10.0 | 0.00 | 0.00 | 0.00 | 77 | 1009.8 |
| 20260901185716 | 65 | 225 | 4.0 | 8.0 | 0.00 | 0.00 | 0.00 | 78 | 1009.7 |
| 20260901184716 | 65 | 293 | 4.0 | 8.0 | 0.00 | 0.00 | 0.00 | 79 | 1009.8 |
| 20260901183716 | 65 | 225 | 3.0 | 6.0 | 0.00 | 0.00 | 0.00 | 79 | 1010.0 |
| 20260901182736 | 65 | 0.0 | 0.0 | 0.00 | 0.00 | 0.00 | 78 | 1010.1 | |
| 20260901181716 | 65 | 338 | 1.0 | 2.0 | 0.00 | 0.00 | 0.00 | 79 | 1009.9 |
| 20260901180736 | 65 | 293 | 2.0 | 5.0 | 0.00 | 0.00 | 0.00 | 79 | 1009.9 |
| 20260901175756 | 65 | 248 | 5.0 | 7.0 | 0.00 | 0.00 | 0.00 | 79 | 1009.8 |
| 20260901174736 | 64 | 0.0 | 2.0 | 0.00 | 0.00 | 0.00 | 81 | 1009.7 | |
| 20260901173716 | 63 | 203 | 5.0 | 8.0 | 0.00 | 0.00 | 0.00 | 82 | 1009.7 |
| 20260901172716 | 63 | 225 | 3.0 | 6.0 | 0.00 | 0.00 | 0.00 | 82 | 1009.7 |
| 20260901171736 | 63 | 248 | 3.0 | 5.0 | 0.00 | 0.00 | 0.00 | 82 | 1009.6 |
| 20260901170716 | 63 | 225 | 4.0 | 6.0 | 0.00 | 0.00 | 0.00 | 82 | 1009.7 |
| 20260901165716 | 63 | 270 | 1.0 | 4.0 | 0.00 | 0.00 | 0.00 | 83 | 1009.6 |
| 20260901164716 | 63 | 0.0 | 1.0 | 0.00 | 0.00 | 0.00 | 83 | 1009.6 | |
| 20260901163716 | 63 | 0.0 | 0.0 | 0.00 | 0.00 | 0.00 | 83 | 1009.7 | |
| 20260901162716 | 63 | 135 | 1.0 | 2.0 | 0.00 | 0.00 | 0.00 | 84 | 1009.8 |
| 20260901161716 | 62 | 225 | 1.0 | 1.0 | 0.00 | 0.00 | 0.00 | 85 | 1009.8 |
| 20260901160736 | 62 | 158 | 2.0 | 6.0 | 0.00 | 0.00 | 0.00 | 85 | 1009.8 |
| 20260901155736 | 62 | 270 | 2.0 | 5.0 | 0.00 | 0.00 | 0.00 | 85 | 1009.9 |
| 20260901154716 | 61 | 225 | 2.0 | 3.0 | 0.00 | 0.00 | 0.00 | 85 | 1009.9 |
| 20260901153716 | 61 | 225 | 3.0 | 5.0 | 0.00 | 0.00 | 0.00 | 86 | 1009.9 |
| 20260901152716 | 61 | 248 | 2.0 | 3.0 | 0.00 | 0.00 | 0.00 | 87 | 1009.9 |
| 20260901151716 | 60 | 248 | 3.0 | 5.0 | 0.00 | 0.00 | 0.00 | 88 | 1009.9 |
| 20260901150716 | 60 | 225 | 2.0 | 4.0 | 0.00 | 0.00 | 0.00 | 88 | 1010.0 |
| 20260901145716 | 59 | 248 | 4.0 | 5.0 | 0.00 | 0.00 | 0.00 | 89 | 1009.9 |
| 20260901144716 | 59 | 248 | 3.0 | 4.0 | 0.00 | 0.00 | 0.00 | 89 | 1009.9 |
| 20260901143716 | 59 | 248 | 3.0 | 4.0 | 0.00 | 0.00 | 0.00 | 90 | 1009.9 |
| 20260901142716 | 58 | 225 | 3.0 | 5.0 | 0.00 | 0.00 | 0.00 | 90 | 1010.0 |
| 20260901141716 | 58 | 248 | 3.0 | 6.0 | 0.00 | 0.00 | 0.00 | 90 | 1010.0 |
| 20260901140716 | 58 | 248 | 3.0 | 5.0 | 0.00 | 0.00 | 0.00 | 91 | 1010.0 |
| 20260901135736 | 58 | 248 | 2.0 | 3.0 | 0.00 | 0.00 | 0.00 | 91 | 1009.9 |
| 20260901134716 | 58 | 248 | 3.0 | 4.0 | 0.00 | 0.00 | 0.00 | 91 | 1009.9 |
| 20260901133716 | 58 | 248 | 2.0 | 3.0 | 0.00 | 0.00 | 0.00 | 91 | 1009.9 |
| 20260901132716 | 58 | 0.0 | 2.0 | 0.00 | 0.00 | 0.00 | 91 | 1009.8 | |
| 20260901131716 | 58 | 0.0 | 2.0 | 0.00 | 0.00 | 0.00 | 91 | 1009.8 | |
| 20260901130716 | 58 | 270 | 2.0 | 3.0 | 0.00 | 0.00 | 0.00 | 91 | 1009.9 |
| 20260901125716 | 58 | 248 | 1.0 | 2.0 | 0.00 | 0.00 | 0.00 | 91 | 1009.8 |
| 20260901124716 | 58 | 293 | 3.0 | 4.0 | 0.00 | 0.00 | 0.00 | 91 | 1009.8 |
| 20260901123736 | 58 | 270 | 2.0 | 4.0 | 0.00 | 0.00 | 0.00 | 91 | 1009.8 |
| 20260901122716 | 58 | 248 | 2.0 | 3.0 | 0.00 | 0.00 | 0.00 | 91 | 1009.8 |
| 20260901121716 | 57 | 225 | 2.0 | 4.0 | 0.00 | 0.00 | 0.00 | 92 | 1009.7 |
| 20260901120716 | 57 | 270 | 2.0 | 4.0 | 0.00 | 0.00 | 0.00 | 91 | 1009.6 |
| 20260901115736 | 57 | 225 | 1.0 | 2.0 | 0.00 | 0.00 | 0.00 | 91 | 1009.6 |
| 20260901114716 | 57 | 248 | 2.0 | 3.0 | 0.00 | 0.00 | 0.00 | 92 | 1009.6 |
| 20260901113716 | 56 | 225 | 3.0 | 5.0 | 0.00 | 0.00 | 0.00 | 92 | 1009.5 |
| 20260901112716 | 55 | 338 | 1.0 | 8.0 | 0.00 | 0.00 | 0.00 | 91 | 1009.5 |
| 20260901111716 | 54 | 0.0 | 1.0 | 0.00 | 0.00 | 0.00 | 90 | 1009.2 | |
| 20260901110736 | 54 | 0.0 | 0.0 | 0.00 | 0.00 | 0.00 | 89 | 1009.0 | |
| 20260901105716 | 53 | 0.0 | 0.0 | 0.00 | 0.00 | 0.00 | 88 | 1008.9 | |
| 20260901104716 | 53 | 0.0 | 0.0 | 0.00 | 0.00 | 0.00 | 89 | 1008.9 |